Regional Weather Roundup
Issued by NWS Boston, MA

Current Version | Previous Version | Text Only | Print | Product List | Glossary Off
Versions: 1 2 3 4 5 6 7 8 9 10 11 12 13 14 15 16 17 18 19 20 21 22 23 24 25 26 27 28

000
ASUS41 KBOX 230410
RWRBOX

REGIONAL WEATHER ROUNDUP
NATIONAL WEATHER SERVICE TAUNTON MA
1100 PM EST THU FEB 22 2018

NOTE:  "FAIR" INDICATES FEW OR NO CLOUDS BELOW 12,000 FEET WITH NO
SIGNIFICANT WEATHER AND/OR OBSTRUCTIONS TO VISIBILITY.

MAZALL-230500-
EASTERN MASSACHUSETTS

CITY           SKY/WX    TMP DP  RH WIND       PRES   REMARKS
BOSTON         CLOUDY    34  30  85 N7        30.70R WCI  28
BEVERLY        MOCLDY    31  29  92 NW3       30.69S
LAWRENCE       FAIR      31  28  89 CALM      30.70F FOG
BEDFORD        FOG       28  27  96 CALM      30.68F VSB 1/2
BLUE HILL        N/A    N/A N/A N/A N5        30.64F
NORWOOD        CLOUDY    35  32  88 CALM      30.69S
MARSHFIELD     CLOUDY    36  32  87 CALM      30.69R
PLYMOUTH       CLOUDY    35  32  88 N6        30.68R WCI  30
TAUNTON        CLOUDY    34  31  88 N3        30.68R
NEW BEDFORD    CLOUDY    33  32  96 NE3       30.68R
$$

MAZALL-230500-
CAPE COD AND THE ISLANDS

CITY           SKY/WX    TMP DP  RH WIND       PRES   REMARKS
FALMOUTH       CLOUDY    34  30  86 N6        30.68  WCI  29
HYANNIS        CLOUDY    36  32  85 NE6       30.66R WCI  31
CHATHAM        CLOUDY    36  32  85 N6        30.67R WCI  31
PROVINCETOWN   CLOUDY    35  31  85 N7        30.69R WCI  29
NANTUCKET      CLOUDY    36  35  96 NE9       30.66R WCI  29
MARTHAS VNYRD  CLOUDY   N/A N/A N/A NE9       30.67R
$$

MAZALL-230500-
CENTRAL AND WESTERN MASSACHUSETTS

CITY           SKY/WX    TMP DP  RH WIND       PRES   REMARKS
WORCESTER      MOCLDY    29  27  92 CALM      30.64S
FITCHBURG      CLOUDY    31  30  96 CALM      30.68F FOG
ORANGE         FOG       24  22  91 CALM      30.68  VSB 1/4
SPRINGFIELD    PTCLDY    29  28  97 N3        30.68S
WESTFIELD      FAIR      26  26 100 N6        30.69R WCI  19
NORTH ADAMS    CLOUDY    29  27  92 CALM      30.68R
PITTSFIELD     CLOUDY    27  25  92 N3        30.62S
$$

RIZALL-230500-
RHODE ISLAND

CITY           SKY/WX    TMP DP  RH WIND       PRES   REMARKS
PROVIDENCE     CLOUDY    33  32  96 NE7       30.69F WCI  27
NEWPORT        CLOUDY    33  31  92 NE6       30.67R WCI  28
BLOCK ISLAND   CLOUDY    34  32  92 NE8G16    30.68R WCI  27
SMITHFIELD     FLURRIES  30  28  93 MISG      30.67S
WESTERLY       CLOUDY    35  33  92 N6        30.69R WCI  30
$$

CTZALL-230500-
CONNECTICUT

CITY           SKY/WX    TMP DP  RH WIND       PRES   REMARKS
BRADLEY INTL   FAIR      28  28 100 N6        30.69S WCI  22
HARTFORD       CLOUDY    33  31  92 N8        30.70R WCI  26
BRIDGEPORT     CLOUDY    36  32  85 N10       30.70R WCI  28
DANBURY        MOCLDY    33  31  92 CALM      30.68R
GROTON         CLOUDY    35  31  85 NE6       30.69R WCI  30
NEW HAVEN      CLOUDY    35  32  88 N7        30.69R WCI  29
CHESTER        CLOUDY    34  32  93 N6        30.67R WCI  29
MERIDEN        CLOUDY    33  31  92 N7        30.70R WCI  27
WILLIMANTIC    CLOUDY    35  31  85 NE6       30.69R WCI  30
OXFORD         CLOUDY    31  30  96 N8        30.67R WCI  23
$$

MEZ002-015-021-024-NHZ003-005-008-011-012-014-VTZ005-008-230500-
NORTHERN NEW ENGLAND

CITY           SKY/WX    TMP DP  RH WIND       PRES   REMARKS
PORTLAND ME    MOCLDY    29  27  92 CALM      30.69S
BANGOR ME      FAIR      24  13  62 NW6       30.70R WCI  17
CONCORD NH     CLOUDY    25  22  88 CALM      30.68S
MANCHESTER NH  FAIR      25  25 100 CALM      30.67S
NASHUA NH      MOCLDY    23  23 100 CALM      30.70S FOG
PORTSMOUTH NH  FOG       26  25  97 CALM      30.68S VSB 3/8
JAFFREY NH     FAIR      22  22 100 CALM      30.64F
KEENE NH       FOG       24  23  96 CALM      30.69S VSB 1/4
BURLINGTON VT  FAIR      22  15  75 NW5       30.72R WCI  16
MT. WASHINGTON PTCLDY    19 -17  19 NW29        N/A  WCI   1
$$

NYZ052-076-230500-
EASTERN NEW YORK

CITY           SKY/WX    TMP DP  RH WIND       PRES   REMARKS
ALBANY         FAIR      23  20  88 CALM      30.71F
NEW YORK CITY  CLOUDY    38  33  82 NE12      30.67R WCI  30
$$

ANZALL-230500-
MARINE OBSERVATIONS

STATION/POSITION TIME  TEMP    WIND        PRES    VSBY  WAVE
                       AIR SEA DIR/SP/G                  HT/PER
                 (UTC) (F)     (DEG/KT/KT) (MB)    (MI)  (FT/S)
BOSTON BUOY      0350   35 40  350/  6/  6 1039.2R         3/ 5
BUZZARDS BAY     0300   34      50/ 14/ 15 1038.4R
NANTUCKET SOUND  0250   36 39   30/ 14/ 16 1038.2          2/ 4
MASS BAY-STELLWA 0304   34 40              1038.5R         2/ 5
ISLE OF SHOALS   0300   33     300/  8/  9 1039.2R
S OF BLOCK IS    0343      40                N/A           4/ 4
$$

......................KEY.........................
  SKY/WX - SKY CONDITION/PRESENT WEATHER
  TMP    - TEMPERATURE IN FAHRENHEIT
  DWPT   - DEWPOINT IN FAHRENHEIT
  RH     - RELATIVE HUMIDITY IN PERCENT
  WIND   - DIRECTION AND SPEED IN MPH
  PRES   - MEAN SEA LEVEL PRESSURE IN INCHES OF HG
  WCI    - WIND CHILL INDEX
  VSB    - VISIBILITY IN MILES
  HX     - HEAT INDEX
  TC     - TEMPERATURE IN CELSIUS
  VRB    - VARIABLE WIND DIRECTION
  N/A    - NOT AVAILABLE




USA.gov is the U.S. government's official web portal to all federal, state and local government web resources and services.